| time (UTC) | temp F | wind direction | speed MPH | gust MPH | rain 1hr in | rain 24hr in | rain mn in | humidity % | barometer mb |
| 20260506211541 | 44 | 344 | 6.0 | 19.0 | 0.01 | 0.47 | 0.33 | 98 | 948.4 |
| 20260506204538 | 44 | 355 | 6.0 | 15.0 | 0.01 | 0.47 | 0.32 | 98 | 947.9 |
| 20260506203036 | 45 | 295 | 3.0 | 7.0 | 0.01 | 0.47 | 0.32 | 98 | 947.5 |
| 20260506201536 | 45 | 355 | 6.0 | 13.0 | 0.02 | 0.47 | 0.32 | 98 | 947.4 |
| 20260506194600 | 46 | 342 | 6.0 | 13.0 | 0.01 | 0.47 | 0.31 | 98 | 947.4 |
| 20260506193049 | 46 | 5 | 6.0 | 10.0 | 0.01 | 0.47 | 0.31 | 98 | 947.3 |
| 20260506191545 | 46 | 355 | 5.0 | 10.0 | 0.01 | 0.46 | 0.30 | 98 | 947.1 |
| 20260506184532 | 47 | 339 | 4.0 | 11.0 | 0.02 | 0.47 | 0.30 | 98 | 946.8 |
| 20260506183031 | 47 | 360 | 7.0 | 14.0 | 0.02 | 0.47 | 0.30 | 97 | 946.6 |
| 20260506181527 | 48 | 5 | 6.0 | 10.0 | 0.01 | 0.46 | 0.28 | 97 | 946.5 |
| 20260506174521 | 55 | 321 | 2.0 | 6.0 | 0.00 | 0.45 | 0.28 | 98 | 946.0 |
| 20260506173020 | 55 | 260 | 2.0 | 9.0 | 0.01 | 0.45 | 0.28 | 98 | 946.1 |
| 20260506171523 | 55 | 319 | 6.0 | 13.0 | 0.01 | 0.45 | 0.28 | 98 | 946.0 |
| 20260506164517 | 55 | 273 | 8.0 | 12.0 | 0.02 | 0.45 | 0.28 | 97 | 946.2 |
| 20260506163011 | 54 | 280 | 7.0 | 14.0 | 0.02 | 0.44 | 0.27 | 97 | 946.2 |
| 20260506161512 | 54 | 246 | 7.0 | 13.0 | 0.04 | 0.44 | 0.27 | 97 | 946.4 |
| 20260506154504 | 54 | 253 | 7.0 | 14.0 | 0.05 | 0.43 | 0.26 | 97 | 946.5 |
| 20260506153003 | 54 | 246 | 10.0 | 15.0 | 0.05 | 0.42 | 0.25 | 96 | 946.6 |
| 20260506151503 | 54 | 252 | 10.0 | 16.0 | 0.04 | 0.40 | 0.23 | 96 | 946.6 |
| 20260506144505 | 54 | 250 | 9.0 | 15.0 | 0.06 | 0.38 | 0.21 | 96 | 946.3 |
| 20260506143007 | 54 | 238 | 9.0 | 12.0 | 0.09 | 0.37 | 0.20 | 96 | 946.6 |
| 20260506141505 | 53 | 234 | 7.0 | 11.0 | 0.12 | 0.36 | 0.19 | 96 | 946.5 |
| 20260506134557 | 53 | 253 | 7.0 | 14.0 | 0.17 | 0.33 | 0.16 | 96 | 946.8 |
| 20260506133102 | 53 | 240 | 7.0 | 13.0 | 0.16 | 0.28 | 0.12 | 96 | 947.1 |
| 20260506131549 | 53 | 270 | 9.0 | 16.0 | 0.13 | 0.25 | 0.08 | 95 | 947.5 |
| 20260506124507 | 53 | 235 | 9.0 | 14.0 | 0.06 | 0.22 | 0.14 | 95 | 947.2 |
| 20260506123007 | 53 | 263 | 7.0 | 13.0 | 0.03 | 0.19 | 0.11 | 95 | 947.1 |
| 20260506121507 | 53 | 252 | 6.0 | 10.0 | 0.03 | 0.18 | 0.10 | 95 | 947.0 |
| 20260506114556 | 53 | 250 | 4.0 | 7.0 | 0.03 | 0.17 | 0.09 | 94 | 947.3 |
| 20260506113052 | 53 | 270 | 6.0 | 10.0 | 0.04 | 0.16 | 0.08 | 93 | 947.3 |
| 20260506111551 | 53 | 227 | 6.0 | 10.0 | 0.05 | 0.16 | 0.08 | 94 | 947.4 |
| 20260506104547 | 53 | 250 | 4.0 | 8.0 | 0.04 | 0.14 | 0.06 | 94 | 947.6 |
| 20260506103042 | 53 | 241 | 2.0 | 6.0 | 0.03 | 0.13 | 0.05 | 93 | 947.4 |
| 20260506101548 | 53 | 263 | 5.0 | 10.0 | 0.01 | 0.11 | 0.03 | 93 | 947.3 |
| 20260506094540 | 53 | 261 | 4.0 | 8.0 | 0.00 | 0.10 | 0.02 | 94 | 947.0 |
| 20260506093039 | 52 | 244 | 4.0 | 8.0 | 0.00 | 0.10 | 0.02 | 95 | 947.0 |
| 20260506091539 | 52 | 258 | 4.0 | 7.0 | 0.00 | 0.10 | 0.02 | 96 | 947.2 |
| 20260506084541 | 50 | 286 | 1.0 | 3.0 | 0.00 | 0.10 | 0.02 | 95 | 947.5 |
| 20260506083037 | 51 | 157 | 0.0 | 1.0 | 0.00 | 0.10 | 0.02 | 95 | 947.4 |
| 20260506081536 | 50 | 155 | 0.0 | 1.0 | 0.00 | 0.10 | 0.02 | 95 | 947.3 |
| 20260506073038 | 51 | 149 | 0.0 | 5.0 | 0.00 | 0.10 | 0.02 | 94 | 947.4 |
| 20260506071537 | 51 | 142 | 0.0 | 3.0 | 0.00 | 0.10 | 0.02 | 94 | 947.5 |
| 20260506061533 | 50 | 166 | 3.0 | 5.0 | 0.00 | 0.10 | 0.02 | 92 | 948.0 |
| 20260506044532 | 50 | 161 | 1.0 | 8.0 | 0.00 | 0.10 | 0.02 | 93 | 949.2 |
| 20260506043035 | 50 | 156 | 2.0 | 6.0 | 0.00 | 0.10 | 0.02 | 93 | 949.1 |
| 20260506041530 | 50 | 161 | 0.0 | 2.0 | 0.00 | 0.10 | 0.02 | 92 | 949.4 |
| 20260506034528 | 51 | 107 | 3.0 | 9.0 | 0.00 | 0.10 | 0.02 | 91 | 949.8 |
| 20260506033023 | 52 | 109 | 5.0 | 11.0 | 0.00 | 0.10 | 0.02 | 92 | 949.6 |
| 20260506031520 | 53 | 94 | 2.0 | 7.0 | 0.00 | 0.10 | 0.02 | 93 | 949.6 |
| 20260506024517 | 54 | 109 | 3.0 | 11.0 | 0.00 | 0.10 | 0.02 | 93 | 949.6 |
| 20260506023020 | 55 | 61 | 5.0 | 11.0 | 0.00 | 0.10 | 0.02 | 93 | 949.6 |
| 20260506021523 | 56 | 94 | 1.0 | 9.0 | 0.00 | 0.10 | 0.02 | 93 | 949.3 |
| 20260506014507 | 57 | 17 | 1.0 | 4.0 | 0.00 | 0.10 | 0.02 | 92 | 949.3 |
| 20260506013005 | 58 | 44 | 1.0 | 4.0 | 0.00 | 0.10 | 0.02 | 91 | 949.1 |
| 20260506011502 | 59 | 5 | 3.0 | 9.0 | 0.00 | 0.10 | 0.02 | 88 | 949.0 |
| 20260506004606 | 59 | 276 | 0.0 | 0.0 | 0.00 | 0.10 | 0.02 | 89 | 948.5 |
| 20260506003100 | 59 | 289 | 0.0 | 0.0 | 0.00 | 0.10 | 0.02 | 90 | 948.3 |
| 20260506001559 | 59 | 289 | 0.0 | 0.0 | 0.00 | 0.10 | 0.02 | 90 | 948.2 |
| 20260505234608 | 58 | 289 | 1.0 | 4.0 | 0.00 | 0.10 | 0.02 | 90 | 947.9 |
| 20260505233057 | 59 | 302 | 1.0 | 4.0 | 0.01 | 0.10 | 0.02 | 90 | 948.0 |
| 20260505231557 | 59 | 297 | 2.0 | 5.0 | 0.01 | 0.10 | 0.02 | 90 | 947.9 |
| 20260505224558 | 60 | 300 | 2.0 | 6.0 | 0.01 | 0.10 | 0.02 | 87 | 947.6 |
| 20260505223057 | 61 | 348 | 3.0 | 14.0 | 0.00 | 0.09 | 0.01 | 84 | 948.0 |
| 20260505221558 | 61 | 256 | 4.0 | 10.0 | 0.00 | 0.09 | 0.01 | 84 | 947.5 |
| 20260505214622 | 62 | 245 | 1.0 | 4.0 | 0.00 | 0.09 | 0.01 | 86 | 947.2 |
| 20260505213102 | 62 | 215 | 1.0 | 3.0 | 0.00 | 0.09 | 0.01 | 88 | 947.3 |